[[{"header":{"parameterUnit":"m.s-1","parameterCategory":1,"la1":30.2991,"la2":30.254,"lo1":-89.0895,"lo2":-89.0444,"dy":0.0017,"dx":0.0017,"nx":28,"ny":28,"refTime":"2025-11-16T03:00:00:Z","depth":0,"parameterNumber":2,"parameterNumberName":"U-component_of_WINDS"},"data":[0,0,0,0,0,0,0,0,0,0,0,0,0,0,0,0,0,0,0,0,0,0,0,0,0,0,0,0,0,0,0,0,0,0,0,0,0,0,0,0,0,0,0,0,0,0,0,0,0,0,0,0,0,0,0,0,0,0,2.6905,2.6905,0,2.6912,2.6912,2.6912,2.6914,2.6913,2.6913,2.6913,2.6922,2.6922,2.6922,0,0,0,0,0,0,0,0,0,0,0,0,0,2.6897,2.6897,2.6905,2.6905,2.6905,2.6912,2.6912,2.6912,2.6914,2.6913,2.6913,2.6913,2.6922,2.6922,2.6922,0,0,0,0,0,0,0,0,0,0,0,0,0,2.6902,2.6897,2.6905,2.6907,2.6907,2.6912,2.6912,2.6912,2.6914,2.6913,2.6913,2.6913,2.6922,2.6922,2.6923,2.6927,0,0,2.6924,2.6924,0,0,0,0,0,0,0,0,2.6901,2.6902,2.6906,2.6907,2.6907,2.6912,2.6912,2.6917,2.6914,2.6911,2.6913,2.6913,2.6919,2.6919,2.6921,2.6927,2.6928,2.6924,2.6924,2.6924,2.6924,0,0,0,0,0,0,0,2.6901,2.6902,2.6908,2.6906,2.6907,2.6908,2.6909,2.6913,2.6915,2.6911,2.6911,2.6912,2.6919,2.6921,2.6921,2.6928,2.6924,2.6924,2.6924,2.6925,2.6943,2.6943,0,0,0,0,0,0,2.69,2.6901,2.6908,2.6908,2.6904,2.6909,2.6909,2.691,2.6915,2.6916,2.6912,2.6912,2.692,2.6921,2.6921,2.6929,2.6924,2.6925,2.6925,2.6943,2.6943,2.6943,0,0,0,0,0,0,2.69,2.6901,2.6907,2.6905,2.6906,2.6909,2.691,2.6911,2.6912,2.6916,2.6917,2.6913,2.692,2.6921,2.6927,2.693,2.6925,2.6925,2.6942,2.6943,2.6943,2.6944,0,0,0,0,0,0,2.69,2.69,2.6901,2.6905,2.6906,2.6911,2.691,2.6911,2.6913,2.6913,2.6917,2.6918,2.692,2.6926,2.6927,2.693,2.6926,2.6942,2.6943,2.6943,2.6943,2.6944,2.6944,0,0,0,0,0,2.6899,2.69,2.6901,2.6902,2.6906,2.6911,2.6912,2.6913,2.6913,2.6914,2.6918,2.6918,2.6929,2.6926,2.6928,2.6931,2.6942,2.6943,2.6943,2.6943,2.6944,2.6944,0,0,0,0,0,0,2.6896,2.69,2.6901,2.6903,2.6907,2.6911,2.6912,2.6914,2.6918,2.6917,2.692,2.6921,2.6928,2.693,2.6927,2.6938,2.6936,2.6937,2.6935,2.6936,2.6937,2.6936,2.6926,0,0,0,0,0,2.6895,2.6898,2.6902,2.6904,2.6905,2.6909,2.6911,2.6913,2.6916,2.6918,2.6921,2.6926,2.6931,2.6934,2.6938,2.6944,2.6947,2.6948,2.6948,2.6949,2.6949,2.6956,2.6957,2.6945,2.6945,2.6945,0,0,2.6894,2.6897,2.6898,2.6903,2.6906,2.691,2.691,2.6913,2.6917,2.6918,2.6924,2.6927,2.6933,2.694,2.6943,2.6942,2.6954,2.6949,2.695,2.695,2.6956,2.6957,2.6958,2.6945,2.6945,2.6945,0,0,2.6894,2.6896,2.6898,2.6902,2.6907,2.691,2.6911,2.6916,2.6918,2.6924,2.6927,2.6932,2.694,2.6944,2.6948,2.6955,2.6956,2.6957,2.6959,2.6965,2.6966,2.6967,2.6971,2.6972,2.6957,2.6957,2.6957,0,2.6891,2.6896,2.6899,2.6904,2.6907,2.691,2.6914,2.6918,2.6924,2.6927,2.6926,2.6939,2.6942,2.6952,2.6954,2.6956,2.6959,2.6955,2.6966,2.6967,2.6968,2.6972,2.6973,2.6957,2.6957,2.6957,2.6957,0,2.6895,2.6898,2.69,2.6907,2.6911,2.6915,2.6921,2.6924,2.6927,2.6931,2.6939,2.6945,2.6952,2.6955,2.6956,2.6965,2.6965,2.6965,2.6963,2.6969,2.6973,2.6974,2.6957,2.6957,2.6957,2.6957,0,0,2.6889,2.69,2.6901,2.6906,2.6913,2.6917,2.6923,2.6931,2.6935,2.6941,2.6947,2.6956,2.6957,2.6961,2.6964,2.697,2.6978,2.697,2.697,2.6972,2.6991,2.6991,2.6992,2.698,2.698,2.698,2.6991,0,2.689,2.6899,2.6905,2.6913,2.6918,2.6923,2.6929,2.6936,2.6941,2.6947,2.6953,2.696,2.696,2.6963,2.6969,2.6976,2.6982,2.6975,2.6987,2.6987,2.6985,2.6994,2.6993,2.7002,2.6992,2.6992,2.6993,0,2.6891,2.6898,2.6907,2.6918,2.692,2.6925,2.6934,2.694,2.6949,2.6952,2.6959,2.6963,2.6972,2.6971,2.6985,2.698,2.6986,2.6991,2.6991,2.6992,2.6989,2.6995,2.7005,2.7007,2.6995,2.6995,2.6994,0,2.6888,2.6899,2.6907,2.6911,2.6923,2.6926,2.6932,2.6941,2.6946,2.6955,2.6959,2.6969,2.6975,2.6983,2.6991,2.6989,2.7005,2.7004,2.7009,2.7009,2.7011,2.7011,2.7022,2.7015,2.7015,2.7015,2.7015,0,2.6888,2.6894,2.6906,2.691,2.6918,2.6925,2.6933,2.6939,2.6948,2.6955,2.6961,2.6968,2.6978,2.6987,2.6994,2.7005,2.7008,2.7012,2.7014,2.7011,2.7011,2.7014,2.7014,2.7016,2.7015,2.7015,2.7015,0,2.6885,2.6892,2.6901,2.6914,2.6917,2.6922,2.6933,2.6939,2.6946,2.6956,2.6959,2.697,2.6981,2.699,2.7005,2.701,2.7022,2.7024,2.7019,2.702,2.7025,2.7025,2.7039,2.7042,2.7033,2.7033,2.7033,0,2.6884,2.6889,2.6902,2.6908,2.6913,2.6922,2.6928,2.6937,2.6944,2.6957,2.6962,2.6974,2.6984,2.7003,2.7013,2.7026,2.7028,2.7032,2.7029,2.7028,2.7029,2.7028,2.703,2.7032,2.7032,2.7032,2.7032,0,2.6883,2.6888,2.6896,2.6907,2.6915,2.6924,2.6933,2.6937,2.6949,2.6957,2.6969,2.6977,2.6993,2.7006,2.702,2.7028,2.7033,2.7034,2.7036,2.7033,2.703,2.7033,2.702,2.7032,2.7032,2.7032,2.7032,2.7032,2.6881,2.6886,2.6898,2.6908,2.6917,2.6926,2.6933,2.6942,2.6952,2.6966,2.6972,2.6985,2.6998,2.7018,2.7026,2.7038,2.7038,2.7041,2.7041,2.7042,2.7042,2.7029,2.7041,2.7041,2.7041,2.7041,2.7041,0,2.688,2.6889,2.6898,2.6912,2.6921,2.6926,2.6938,2.6945,2.6957,2.6968,2.6979,2.6995,2.7009,2.7022,2.7036,2.7044,2.7046,2.7047,2.7046,2.7049,2.7041,2.7038,2.7045,2.7045,2.7045,2.7045,2.7045,2.7045,2.6881,2.6891,2.6898,2.6914,2.6923,2.6936,2.6943,2.6953,2.6962,2.698,2.6991,2.7,2.7013,2.703,2.7044,2.7047,2.7053,2.7053,2.7057,2.7049,2.7049,2.7048,2.7045,2.7054,2.7054,2.7065,2.7065,2.7065]},{"header":{"parameterUnit":"m.s-1","parameterCategory":1,"la1":30.2991,"la2":30.254,"lo1":-89.0895,"lo2":-89.0444,"dy":0.0017,"dx":0.0017,"nx":28,"ny":28,"refTime":"2025-11-16T03:00:00:Z","depth":0,"parameterNumber":3,"parameterNumberName":"V-component_of_WINDS"},"data":[0,0,0,0,0,0,0,0,0,0,0,0,0,0,0,0,0,0,0,0,0,0,0,0,0,0,0,0,0,0,0,0,0,0,0,0,0,0,0,0,0,0,0,0,0,0,0,0,0,0,0,0,0,0,0,0,0,0,0.3654,0.3655,0,0.3715,0.3715,0.3716,0.3708,0.3707,0.3706,0.3705,0.3767,0.377,0.3772,0,0,0,0,0,0,0,0,0,0,0,0,0,0.3528,0.353,0.3654,0.3655,0.3655,0.3715,0.3715,0.3716,0.3708,0.3707,0.3706,0.3704,0.3766,0.3769,0.3772,0,0,0,0,0,0,0,0,0,0,0,0,0,0.3585,0.3531,0.3654,0.3658,0.3659,0.3714,0.3716,0.3717,0.3708,0.3707,0.3705,0.3704,0.3765,0.3769,0.3773,0.3827,0,0,0.3785,0.3786,0,0,0,0,0,0,0,0,0.3582,0.359,0.3657,0.3658,0.3659,0.3702,0.3694,0.3754,0.3709,0.369,0.3705,0.3703,0.3747,0.3752,0.3767,0.383,0.3833,0.3785,0.3787,0.3789,0.379,0,0,0,0,0,0,0,0.3578,0.3587,0.3678,0.3658,0.3659,0.3657,0.3663,0.3705,0.3726,0.3691,0.3691,0.3698,0.3747,0.3763,0.3768,0.3834,0.3785,0.3788,0.3791,0.3792,0.3941,0.3942,0,0,0,0,0,0,0.3573,0.3584,0.3676,0.368,0.3616,0.366,0.3667,0.369,0.3726,0.3729,0.3699,0.3698,0.3757,0.3764,0.377,0.3834,0.3789,0.3793,0.3795,0.3939,0.3941,0.3943,0,0,0,0,0,0,0.357,0.3581,0.3674,0.3632,0.3643,0.3664,0.3689,0.3692,0.3708,0.3732,0.3735,0.3712,0.3756,0.3765,0.3812,0.3836,0.3795,0.3798,0.3937,0.394,0.3942,0.3963,0,0,0,0,0,0,0.3567,0.358,0.3602,0.3632,0.3645,0.3715,0.3691,0.3694,0.3715,0.3713,0.3744,0.3748,0.3756,0.3806,0.3816,0.3841,0.3801,0.3935,0.3938,0.3941,0.396,0.3966,0.3971,0,0,0,0,0,0.3562,0.3606,0.3603,0.3614,0.3673,0.3717,0.3724,0.3732,0.3717,0.3738,0.3752,0.3747,0.3832,0.3811,0.3822,0.3848,0.3934,0.3937,0.3941,0.3958,0.3965,0.3971,0,0,0,0,0,0,0.3579,0.361,0.3607,0.3663,0.3687,0.3715,0.3743,0.374,0.3769,0.3766,0.3774,0.3781,0.3829,0.3843,0.382,0.3901,0.388,0.3886,0.389,0.3896,0.3902,0.3897,0.3804,0,0,0,0,0,0.3589,0.3623,0.3648,0.3694,0.3707,0.3722,0.3742,0.3745,0.3771,0.3781,0.38,0.3824,0.3856,0.3877,0.3908,0.3962,0.3968,0.3985,0.399,0.3994,0.3999,0.4026,0.4033,0.3955,0.3955,0.3954,0,0,0.3611,0.3632,0.3653,0.3698,0.3718,0.3751,0.3731,0.3768,0.3792,0.3787,0.3832,0.3846,0.3874,0.3924,0.3947,0.3938,0.4022,0.3999,0.4002,0.4005,0.403,0.4038,0.4045,0.3957,0.3957,0.3956,0,0,0.3667,0.3687,0.3726,0.3745,0.3774,0.3784,0.3793,0.3821,0.383,0.3876,0.3871,0.39,0.3955,0.3974,0.3991,0.405,0.4046,0.406,0.4087,0.4113,0.4119,0.4125,0.4144,0.4151,0.4065,0.4065,0.4065,0,0.369,0.374,0.3747,0.3783,0.3802,0.3798,0.3837,0.3855,0.3892,0.3905,0.3894,0.3961,0.398,0.4033,0.4047,0.4061,0.4071,0.4057,0.4118,0.4124,0.4129,0.4147,0.4155,0.4067,0.4066,0.4066,0.4066,0,0.3766,0.3801,0.3829,0.3864,0.3886,0.3924,0.3935,0.3956,0.3957,0.3967,0.4012,0.4034,0.4068,0.408,0.4082,0.4133,0.4126,0.4116,0.4096,0.4138,0.4155,0.4162,0.4069,0.4068,0.4068,0.4067,0,0,0.3837,0.3872,0.3883,0.3897,0.3927,0.3954,0.399,0.4022,0.4039,0.4065,0.4094,0.4139,0.4129,0.4149,0.4152,0.4175,0.4218,0.4162,0.4163,0.4171,0.4272,0.4279,0.4287,0.4214,0.4216,0.4217,0.4269,0,0.3894,0.3958,0.3963,0.4021,0.4051,0.4046,0.4077,0.4098,0.4108,0.4134,0.4145,0.4176,0.4162,0.4173,0.4195,0.4208,0.4238,0.4204,0.4241,0.4242,0.4233,0.4296,0.4304,0.4353,0.4276,0.4278,0.4278,0,0.3971,0.3996,0.4056,0.4079,0.4092,0.412,0.4148,0.4175,0.4197,0.4202,0.4222,0.4222,0.4257,0.4235,0.4282,0.4259,0.4274,0.4282,0.4284,0.4287,0.4262,0.43,0.4369,0.4375,0.4289,0.4289,0.4288,0,0.4013,0.4064,0.4105,0.4118,0.4146,0.4165,0.4178,0.4199,0.4217,0.4242,0.4253,0.4282,0.4297,0.4318,0.4325,0.4308,0.4371,0.435,0.4375,0.4375,0.4389,0.4388,0.446,0.44,0.44,0.44,0.44,0,0.4077,0.4113,0.4124,0.415,0.419,0.4195,0.4233,0.4245,0.4263,0.4289,0.4286,0.4311,0.4318,0.4344,0.4349,0.4386,0.4394,0.4398,0.4399,0.4398,0.4397,0.4408,0.4404,0.4402,0.4401,0.4401,0.4401,0,0.4132,0.4141,0.4186,0.4208,0.4214,0.4242,0.426,0.4284,0.4292,0.4326,0.4334,0.4347,0.4376,0.4384,0.442,0.4424,0.4467,0.4465,0.4459,0.4459,0.4483,0.448,0.4563,0.4574,0.4508,0.4509,0.4509,0,0.4172,0.4199,0.4223,0.4241,0.4254,0.4282,0.43,0.4305,0.4323,0.4349,0.4369,0.4398,0.4421,0.4469,0.4481,0.4507,0.4505,0.4533,0.451,0.4507,0.4504,0.4502,0.4504,0.4537,0.4538,0.4538,0.4539,0,0.424,0.4242,0.4268,0.4295,0.4316,0.4337,0.4358,0.4372,0.4379,0.44,0.443,0.4448,0.4483,0.4511,0.4538,0.4549,0.4545,0.4546,0.4553,0.4552,0.4547,0.4548,0.447,0.4544,0.4543,0.4543,0.4543,0.4543,0.4288,0.4311,0.4331,0.4359,0.4374,0.4393,0.4415,0.4425,0.445,0.4479,0.448,0.4512,0.4531,0.4566,0.4579,0.4603,0.4594,0.4605,0.4608,0.461,0.4611,0.4543,0.4608,0.4607,0.4607,0.4607,0.4607,0,0.4355,0.4366,0.4392,0.442,0.4441,0.4435,0.4456,0.4474,0.4502,0.452,0.4543,0.4575,0.4602,0.4615,0.4641,0.4657,0.4656,0.4664,0.4662,0.4665,0.4618,0.4608,0.4665,0.4665,0.4665,0.4664,0.4664,0.4664,0.4392,0.443,0.4434,0.4479,0.449,0.4521,0.4534,0.455,0.4564,0.4601,0.4622,0.463,0.4646,0.4672,0.4695,0.4698,0.4707,0.4716,0.4718,0.4674,0.4668,0.4663,0.4654,0.4719,0.4719,0.4763,0.4763,0.4764]}]]